SL-14 DEB, 45314

Orbit data source: Space-Track

SL-14 DEB, 45314 is space debris in LEO originally from a launch on Thu, 15 Aug 1991 UTC launched from the Plesetsk Missile And Space Complex (PKMTR). Debris objects in space refer to the collection of defunct objects orbiting the Earth. Examples of debris include non-operational satellites, rocket bodies, and fragments generated from explosions, collisions, or faulty payload assembly.

Loading next visibility...
Identifier
45314, 1991-056BC
Orbit
LEO
Country
Flag of CISCIS
Related business
Manufacturer
Unknown
Mission
Spacecraft
Bus & Motor
Unknown
Mass
Unknown
Launch date (UTC)
1991-08-15 (34 years ago)
Launch vehicle
Unknown
Launch site
Plesetsk Missile And Space Complex (PKMTR)
Object type
Payload
Rocket body
Debris
Shape & HBR
Unknown shape, 0.1 m
Radar Cross Section
Small (<0.1 m²)

Expand to show TLE details & history
Last TLE update: 4 hours ago

TLE from 4 hours ago
0 SL-14 DEB
1 45314U 91056BC  26035.85263666 -.00000634  00000-0 -18621-2 0  9991
2 45314  82.5335 250.9385 0050526 253.8486 105.7067 13.09474672283968
Epoch: 2026-02-04T20:27Z
TLE epoch observation values (Epoch: 2026-02-04T20:27:47.807Z)
Latitude
-0.00005°
Longitude
168.97603°
Altitude
1,238.569 km
Speed
7.231 km/s
True Right ascension
16h 43m 45s
True Declination
0° 00' 00"
Sunlit
Object was in daylight at epoch
Visualization orbit readout
Latitude
Unknown
Longitude
Unknown
Altitude
Unknown
Speed
Unknown
Apparent Right ascension
Unknown
Apparent Declination
Unknown
Sunlit
N/A
Visualization observer readout
Local Sidereal Time
02:17:46
Azimuth
Unknown
Elevation
Unknown
Doppler factor
Unknown
Orbital elements
Apogee altitude
1,260.85 km
Perigee altitude
1,184.045 km
Semi-major axis
7,600.585 km
Eccentricity
0.00505
Inclination
82.5335°
RAAN
250.9385°
Arg. of periapsis
253.8486°
True anomaly
106.26311°
Mean anomaly
105.7067°
Eccentric anomaly
105.985°
Mean motion
3.27546 °/min
Orbital period
109.91 mins
BSTAR
-0.0018621
Loading maneuver chart data...
Computing Atmospheric mass density...
Loading historical data...
Loading historical data...
Loading historical data...
Loading historical data...
Loading historical data...
Loading historical data...
Loading historical data...

Documentation

Showing up to 5 results
|